Location: Unspecified
(0.0000°N, 0.0000°E)
Time: 09:50:55
(UTC+00:00)

CZ-3B DEB - Pass Details

Date: 14 February 2026
Orbit: 643 x 41817 km, 26.5° (Epoch: 5 March)

Event Time Altitude Azimuth Distance (km) Brightness Sun altitude
Exits shadow 22:58:44 38° 92° (E) 12,915 ? -67.4°
Maximum altitude 06:05:37 60° 173° (S) 40,411 ? -2.1°
Drops below altitude 10° 10:32:16 10° 90° (E) 6,169 ? 61.8°
Sets 10:34:50 0° 86° (E) 6,379 ? 62.3°
